QPF
0.00 0.00 0.00 0.00 0.00 0.01 0.00 0.00 0.00 0.00 0.00 0.00 0.01 0.00 0.00 0.00 0.00 0.00 0.00 0.00 0.00 0.01 0.01 0.01 0.01 0.01 0.01 0.01 0.01 0.01 0.00 0.00 0.01 0.00 0.00 0.00 0.00 0.00 0.00 0.00 0.00 0.00 0.00
0.00 0.01 0.01 0.00 0.01 0.01 0.01 0.01 0.01 0.00 0.00 0.01 0.01 0.00 0.00 0.00 0.00 0.00 0.00 0.01 0.01 0.00 0.01 0.01 0.01 0.01 0.00 0.01 0.00 0.01 0.01 0.00 0.00 0.00 0.00 0.00 0.00 0.00 0.00 0.00 0.00 0.00 0.00
0.01 0.01 0.01 0.01 0.01 0.01 0.00 0.01 0.01 0.01 0.01 0.01 0.01 0.00 0.00 0.00 0.00 0.01 0.01 0.01 0.00 0.00 0.00 0.01 0.01 0.01 0.00 0.00 0.00 0.00 0.00 0.00 0.00 0.00 0.00 0.00 0.00 0.00 0.00 0.00 0.00 0.00 0.00
0.01 0.01 0.02 0.01 0.01 0.01 0.01 0.00 0.01 0.01 0.01 0.01 0.01 0.00 0.00 0.00 0.00 0.01 0.01 0.01 0.00 0.00 0.00 0.01 0.01 0.00 0.00 0.00 0.00 0.00 0.00 0.00 0.00 0.00 0.00 0.00 0.00 0.00 0.01 0.01 0.01 0.01 0.01
0.03 0.02 0.03 0.02 0.02 0.01 0.01 0.01 0.01 0.01 0.01 0.01 0.01 0.01 0.00 0.01 0.01 0.01 0.01 0.01 0.00 0.00 0.00 0.00 0.00 0.00 0.00 0.00 0.00 0.00 0.00 0.00 0.00 0.00 0.00 0.00 0.00 0.01 0.01 0.01 0.01 0.01 0.01
0.05 0.05 0.05 0.04 0.03 0.02 0.01 0.01 0.01 0.01 0.01 0.01 0.01 0.01 0.01 0.01 0.01 0.01 0.01 0.01 0.01 0.00 0.00 0.00 0.00 0.00 0.00 0.00 0.00 0.00 0.00 0.00 0.00 0.00 0.00 0.00 0.00 0.01 0.02 0.03 0.02 0.02 0.02
0.05 0.06 0.06 0.05 0.04 0.04 0.02 0.02 0.01 0.01 0.01 0.01 0.02 0.02 0.01 0.01 0.01 0.01 0.01 0.00 0.01 0.01 0.01 0.00 0.00 0.01 0.00 0.00 0.00 0.00 0.00 0.00 0.00 0.00 0.00 0.00 0.00 0.01 0.02 0.02 0.03 0.03 0.04
0.05 0.06 0.06 0.06 0.05 0.05 0.03 0.02 0.02 0.02 0.02 0.02 0.02 0.02 0.02 0.02 0.01 0.01 0.01 0.01 0.01 0.01 0.01 0.01 0.00 0.01 0.01 0.01 0.01 0.00 0.00 0.00 0.00 0.00 0.00 0.00 0.01 0.02 0.02 0.01 0.02 0.03 0.03
0.05 0.06 0.07 0.06 0.06 0.05 0.04 0.03 0.02 0.03 0.02 0.02 0.02 0.02 0.02 0.02 0.02 0.02 0.01 0.01 0.01 0.01 0.01 0.01 0.01 0.00 0.00 0.01 0.01 0.01 0.00 0.00 0.00 0.00 0.00 0.00 0.01 0.01 0.02 0.01 0.01 0.01 0.01
0.04 0.06 0.07 0.07 0.07 0.06 0.04 0.03 0.02 0.03 0.03 0.03 0.02 0.02 0.02 0.03 0.02 0.02 0.01 0.01 0.00 0.01 0.01 0.01 0.01 0.01 0.00 0.00 0.00 0.00 0.00 0.00 0.00 0.00 0.00 0.00 0.00 0.01 0.01 0.01 0.01 0.01 0.02
0.03 0.05 0.08 0.08 0.08 0.08 0.06 0.04 0.03 0.02 0.03 0.04 0.03 0.02 0.03 0.03 0.02 0.01 0.01 0.01 0.01 0.01 0.01 0.01 0.01 0.01 0.00 0.00 0.00 0.00 0.00 0.00 0.00 0.00 0.00 0.00 0.00 0.01 0.01 0.01 0.01 0.01 0.02
0.03 0.04 0.07 0.10 0.10 0.10 0.08 0.05 0.04 0.03 0.03 0.03 0.03 0.03 0.03 0.02 0.01 0.01 0.01 0.01 0.01 0.01 0.01 0.01 0.01 0.01 0.01 0.00 0.00 0.00 0.00 0.00 0.00 0.00 0.00 0.00 0.01 0.02 0.02 0.02 0.01 0.02 0.02
0.05 0.04 0.06 0.09 0.13 0.12 0.10 0.06 0.04 0.03 0.02 0.02 0.02 0.02 0.02 0.02 0.02 0.01 0.01 0.01 0.01 0.01 0.01 0.01 0.01 0.01 0.00 0.00 0.00 0.00 0.00 0.00 0.00 0.00 0.00 0.00 0.01 0.02 0.03 0.02 0.02 0.02 0.02
0.07 0.05 0.06 0.08 0.14 0.16 0.12 0.09 0.04 0.03 0.03 0.02 0.02 0.02 0.02 0.03 0.02 0.02 0.02 0.01 0.01 0.01 0.00 0.00 0.00 0.00 0.00 0.00 0.00 0.00 0.00 0.00 0.00 0.00 0.00 0.00 0.01 0.02 0.02 0.03 0.03 0.02 0.02
0.10 0.08 0.07 0.09 0.13 0.17 0.13 0.09 0.04 0.03 0.04 0.04 0.04 0.04 0.04 0.03 0.02 0.01 0.01 0.02 0.02 0.02 0.01 0.00 0.00 0.00 0.00 0.00 0.00 0.00 0.01 0.00 0.00 0.00 0.00 0.00 0.00 0.01 0.01 0.02 0.02 0.02 0.02
0.11 0.10 0.08 0.09 0.14 0.20 0.17 0.10 0.06 0.03 0.04 0.05 0.04 0.05 0.05 0.04 0.03 0.01 0.01 0.01 0.02 0.03 0.02 0.01 0.00 0.00 0.00 0.00 0.00 0.00 0.00 0.00 0.00 0.00 0.00 0.00 0.00 0.00 0.01 0.01 0.01 0.02 0.02
0.14 0.12 0.10 0.08 0.13 0.20 0.22 0.16 0.08 0.04 0.03 0.02 0.03 0.04 0.05 0.05 0.05 0.04 0.03 0.02 0.01 0.03 0.04 0.02 0.01 0.00 0.00 0.00 0.00 0.00 0.00 0.00 0.00 0.00 0.00 0.00 0.00 0.00 0.00 0.00 0.01 0.01 0.01
0.10 0.09 0.08 0.07 0.11 0.18 0.22 0.21 0.11 0.05 0.03 0.02 0.01 0.02 0.03 0.04 0.04 0.05 0.04 0.03 0.03 0.02 0.05 0.07 0.03 0.01 0.01 0.00 0.00 0.00 0.00 0.00 0.00 0.00 0.00 0.00 0.00 0.00 0.00 0.00 0.00 0.00 0.01
0.08 0.06 0.07 0.05 0.10 0.20 0.21 0.21 0.15 0.06 0.04 0.02 0.01 0.01 0.02 0.03 0.04 0.05 0.04 0.04 0.03 0.04 0.04 0.08 0.08 0.04 0.02 0.01 0.00 0.00 0.00 0.00 0.00 0.00 0.00 0.00 0.00 0.00 0.00 0.00 0.00 0.00 0.00
0.08 0.07 0.07 0.07 0.07 0.16 0.22 0.19 0.16 0.09 0.05 0.03 0.02 0.02 0.02 0.03 0.04 0.05 0.06 0.07 0.06 0.06 0.07 0.09 0.11 0.09 0.06 0.03 0.01 0.01 0.00 0.00 0.00 0.00 0.00 0.00 0.00 0.00 0.00 0.00 0.00 0.00 0.00
0.07 0.07 0.06 0.07 0.08 0.12 0.19 0.18 0.14 0.10 0.06 0.04 0.03 0.01 0.01 0.03 0.04 0.04 0.04 0.05 0.06 0.06 0.07 0.08 0.10 0.10 0.09 0.06 0.04 0.02 0.01 0.00 0.01 0.01 0.01 0.00 0.00 0.00 0.00 0.00 0.00 0.00 0.00
0.05 0.07 0.08 0.09 0.11 0.13 0.16 0.16 0.13 0.09 0.06 0.04 0.02 0.01 0.01 0.01 0.03 0.04 0.03 0.03 0.02 0.03 0.04 0.06 0.07 0.09 0.09 0.08 0.07 0.05 0.03 0.01 0.01 0.01 0.01 0.01 0.00 0.00 0.00 0.00 0.00 0.00 0.00
0.05 0.05 0.08 0.08 0.11 0.12 0.14 0.15 0.12 0.09 0.07 0.05 0.03 0.01 0.00 0.00 0.01 0.03 0.04 0.03 0.03 0.02 0.01 0.02 0.03 0.05 0.06 0.06 0.06 0.06 0.05 0.02 0.02 0.01 0.01 0.01 0.01 0.01 0.00 0.00 0.00 0.00 0.00
0.04 0.03 0.06 0.08 0.08 0.09 0.10 0.13 0.12 0.10 0.08 0.05 0.03 0.02 0.00 0.00 0.00 0.01 0.02 0.03 0.03 0.03 0.01 0.01 0.01 0.02 0.03 0.04 0.04 0.04 0.04 0.02 0.02 0.02 0.01 0.01 0.01 0.01 0.01 0.00 0.00 0.00 0.00
0.04 0.04 0.04 0.06 0.05 0.05 0.06 0.08 0.09 0.09 0.08 0.06 0.04 0.02 0.01 0.01 0.01 0.01 0.01 0.02 0.02 0.02 0.01 0.01 0.01 0.01 0.01 0.02 0.03 0.04 0.04 0.04 0.02 0.02 0.01 0.01 0.01 0.01 0.01 0.01 0.00 0.00 0.00
0.04 0.06 0.04 0.03 0.05 0.05 0.04 0.05 0.06 0.06 0.06 0.06 0.04 0.03 0.02 0.01 0.01 0.02 0.01 0.02 0.02 0.02 0.01 0.01 0.01 0.01 0.01 0.01 0.01 0.03 0.03 0.04 0.03 0.02 0.02 0.02 0.01 0.01 0.01 0.01 0.01 0.00 0.00
MSLP
1017.60 1017.42 1017.30 1017.28 1017.37 1017.56 1017.77 1017.96 1018.07 1018.07 1017.97 1017.80 1017.61 1017.46 1017.38 1017.37 1017.43 1017.50 1017.56 1017.56 1017.49 1017.35 1017.17 1016.97 1016.78 1016.63 1016.52 1016.43 1016.35 1016.26 1016.13 1015.98 1015.79 1015.60 1015.43 1015.28 1015.16 1015.08 1015.01 1014.96 1014.89 1014.81 1014.73
1017.37 1017.23 1017.14 1017.16 1017.29 1017.50 1017.74 1017.95 1018.07 1018.09 1018.02 1017.89 1017.75 1017.64 1017.60 1017.63 1017.71 1017.79 1017.85 1017.85 1017.78 1017.64 1017.45 1017.24 1017.05 1016.88 1016.74 1016.63 1016.51 1016.37 1016.21 1016.02 1015.82 1015.62 1015.44 1015.29 1015.17 1015.08 1015.01 1014.94 1014.87 1014.78 1014.69
1017.26 1017.13 1017.06 1017.10 1017.25 1017.48 1017.73 1017.96 1018.10 1018.15 1018.11 1018.02 1017.92 1017.86 1017.85 1017.89 1017.97 1018.06 1018.10 1018.08 1017.98 1017.83 1017.63 1017.42 1017.22 1017.05 1016.90 1016.77 1016.62 1016.46 1016.27 1016.06 1015.83 1015.62 1015.42 1015.27 1015.15 1015.05 1014.97 1014.90 1014.81 1014.73 1014.64
1017.26 1017.15 1017.10 1017.15 1017.31 1017.54 1017.80 1018.02 1018.18 1018.24 1018.23 1018.17 1018.11 1018.07 1018.08 1018.12 1018.19 1018.24 1018.25 1018.19 1018.07 1017.89 1017.69 1017.49 1017.30 1017.14 1016.99 1016.86 1016.71 1016.53 1016.32 1016.09 1015.85 1015.61 1015.40 1015.22 1015.08 1014.97 1014.87 1014.79 1014.70 1014.62 1014.55
1017.39 1017.29 1017.26 1017.32 1017.48 1017.71 1017.95 1018.16 1018.31 1018.37 1018.37 1018.33 1018.28 1018.26 1018.27 1018.30 1018.34 1018.35 1018.31 1018.21 1018.06 1017.87 1017.66 1017.47 1017.30 1017.16 1017.04 1016.91 1016.77 1016.60 1016.39 1016.14 1015.88 1015.61 1015.37 1015.16 1014.98 1014.84 1014.72 1014.62 1014.54 1014.46 1014.40
1017.59 1017.52 1017.52 1017.59 1017.75 1017.96 1018.18 1018.36 1018.48 1018.53 1018.52 1018.49 1018.45 1018.43 1018.43 1018.44 1018.44 1018.41 1018.33 1018.19 1018.00 1017.79 1017.59 1017.41 1017.27 1017.16 1017.06 1016.97 1016.84 1016.68 1016.47 1016.21 1015.93 1015.64 1015.35 1015.09 1014.87 1014.68 1014.53 1014.41 1014.33 1014.27 1014.23
1017.82 1017.80 1017.83 1017.93 1018.09 1018.29 1018.47 1018.62 1018.70 1018.72 1018.69 1018.65 1018.61 1018.59 1018.59 1018.58 1018.56 1018.49 1018.37 1018.19 1017.98 1017.76 1017.55 1017.38 1017.26 1017.17 1017.11 1017.04 1016.94 1016.79 1016.59 1016.33 1016.03 1015.71 1015.38 1015.07 1014.79 1014.55 1014.36 1014.22 1014.13 1014.08 1014.06
1018.03 1018.06 1018.14 1018.28 1018.46 1018.64 1018.79 1018.90 1018.93 1018.92 1018.88 1018.82 1018.79 1018.77 1018.77 1018.76 1018.72 1018.64 1018.48 1018.28 1018.05 1017.81 1017.60 1017.43 1017.31 1017.24 1017.20 1017.15 1017.07 1016.94 1016.75 1016.50 1016.19 1015.84 1015.48 1015.13 1014.79 1014.51 1014.27 1014.10 1014.00 1013.96 1013.96
1018.18 1018.28 1018.43 1018.61 1018.81 1018.99 1019.11 1019.17 1019.17 1019.13 1019.07 1019.02 1018.99 1018.99 1019.01 1019.01 1018.97 1018.88 1018.71 1018.49 1018.24 1017.98 1017.75 1017.57 1017.45 1017.38 1017.34 1017.30 1017.24 1017.13 1016.96 1016.72 1016.42 1016.07 1015.69 1015.30 1014.93 1014.60 1014.33 1014.13 1014.01 1013.97 1013.98
1018.26 1018.44 1018.66 1018.90 1019.12 1019.29 1019.40 1019.43 1019.40 1019.33 1019.27 1019.22 1019.22 1019.25 1019.29 1019.31 1019.28 1019.19 1019.02 1018.79 1018.52 1018.25 1018.00 1017.80 1017.67 1017.58 1017.54 1017.51 1017.46 1017.37 1017.23 1017.02 1016.74 1016.40 1016.02 1015.62 1015.23 1014.87 1014.56 1014.34 1014.20 1014.15 1014.17
1018.28 1018.55 1018.85 1019.13 1019.38 1019.55 1019.64 1019.64 1019.59 1019.51 1019.45 1019.43 1019.45 1019.51 1019.58 1019.63 1019.62 1019.54 1019.37 1019.14 1018.86 1018.57 1018.30 1018.09 1017.93 1017.83 1017.78 1017.75 1017.71 1017.65 1017.54 1017.37 1017.14 1016.84 1016.48 1016.09 1015.70 1015.32 1014.99 1014.74 1014.59 1014.52 1014.52
1018.27 1018.62 1018.98 1019.31 1019.57 1019.74 1019.81 1019.80 1019.74 1019.66 1019.61 1019.60 1019.65 1019.75 1019.85 1019.92 1019.93 1019.86 1019.70 1019.46 1019.18 1018.88 1018.61 1018.38 1018.21 1018.10 1018.04 1018.02 1018.00 1017.97 1017.91 1017.79 1017.61 1017.36 1017.05 1016.69 1016.31 1015.93 1015.60 1015.33 1015.14 1015.05 1015.04
1018.25 1018.66 1019.07 1019.42 1019.69 1019.86 1019.92 1019.90 1019.83 1019.76 1019.73 1019.75 1019.82 1019.94 1020.06 1020.15 1020.17 1020.11 1019.95 1019.72 1019.44 1019.15 1018.88 1018.65 1018.48 1018.38 1018.33 1018.32 1018.32 1018.33 1018.31 1018.25 1018.13 1017.95 1017.69 1017.38 1017.03 1016.66 1016.32 1016.04 1015.83 1015.71 1015.67
1018.21 1018.68 1019.12 1019.49 1019.76 1019.91 1019.97 1019.95 1019.89 1019.83 1019.81 1019.85 1019.95 1020.08 1020.20 1020.29 1020.32 1020.26 1020.11 1019.89 1019.64 1019.36 1019.11 1018.90 1018.75 1018.66 1018.63 1018.64 1018.67 1018.72 1018.75 1018.75 1018.69 1018.56 1018.37 1018.10 1017.79 1017.45 1017.12 1016.82 1016.59 1016.44 1016.37
1018.15 1018.65 1019.11 1019.48 1019.75 1019.91 1019.96 1019.95 1019.91 1019.88 1019.88 1019.94 1020.04 1020.17 1020.29 1020.38 1020.40 1020.33 1020.20 1020.00 1019.77 1019.53 1019.32 1019.15 1019.03 1018.96 1018.96 1018.99 1019.06 1019.13 1019.20 1019.25 1019.24 1019.18 1019.03 1018.82 1018.55 1018.24 1017.92 1017.63 1017.38 1017.20 1017.09
1018.05 1018.57 1019.03 1019.41 1019.68 1019.84 1019.91 1019.93 1019.92 1019.92 1019.95 1020.03 1020.14 1020.26 1020.37 1020.43 1020.44 1020.38 1020.25 1020.08 1019.89 1019.70 1019.53 1019.40 1019.33 1019.30 1019.32 1019.37 1019.46 1019.56 1019.66 1019.73 1019.77 1019.75 1019.65 1019.49 1019.26 1018.99 1018.69 1018.40 1018.15 1017.95 1017.81
1017.87 1018.40 1018.87 1019.26 1019.54 1019.73 1019.84 1019.90 1019.94 1019.98 1020.05 1020.14 1020.26 1020.37 1020.45 1020.50 1020.49 1020.43 1020.32 1020.18 1020.03 1019.89 1019.78 1019.70 1019.66 1019.67 1019.71 1019.78 1019.87 1019.98 1020.09 1020.18 1020.24 1020.25 1020.20 1020.08 1019.89 1019.66 1019.40 1019.13 1018.89 1018.68 1018.51
1017.61 1018.15 1018.63 1019.03 1019.35 1019.58 1019.74 1019.87 1019.97 1020.07 1020.17 1020.28 1020.40 1020.50 1020.56 1020.59 1020.57 1020.52 1020.43 1020.32 1020.22 1020.14 1020.07 1020.04 1020.03 1020.05 1020.10 1020.17 1020.26 1020.36 1020.47 1020.57 1020.64 1020.68 1020.66 1020.58 1020.44 1020.26 1020.04 1019.80 1019.58 1019.37 1019.19
1017.27 1017.82 1018.32 1018.75 1019.11 1019.40 1019.64 1019.83 1020.00 1020.16 1020.31 1020.44 1020.55 1020.63 1020.68 1020.70 1020.68 1020.63 1020.57 1020.51 1020.45 1020.41 1020.39 1020.39 1020.40 1020.43 1020.47 1020.53 1020.61 1020.69 1020.79 1020.89 1020.97 1021.03 1021.04 1021.00 1020.91 1020.77 1020.60 1020.41 1020.22 1020.03 1019.85
1016.86 1017.43 1017.95 1018.42 1018.83 1019.19 1019.51 1019.78 1020.03 1020.24 1020.42 1020.56 1020.67 1020.74 1020.78 1020.79 1020.77 1020.74 1020.71 1020.69 1020.69 1020.69 1020.70 1020.72 1020.74 1020.77 1020.79 1020.83 1020.88 1020.95 1021.04 1021.13 1021.22 1021.29 1021.34 1021.34 1021.30 1021.22 1021.10 1020.96 1020.80 1020.64 1020.47
1016.43 1017.00 1017.55 1018.06 1018.53 1018.96 1019.35 1019.70 1020.01 1020.26 1020.47 1020.62 1020.72 1020.78 1020.81 1020.81 1020.81 1020.81 1020.82 1020.84 1020.88 1020.92 1020.96 1020.99 1021.01 1021.03 1021.03 1021.05 1021.08 1021.13 1021.20 1021.30 1021.40 1021.49 1021.56 1021.61 1021.61 1021.58 1021.52 1021.43 1021.32 1021.19 1021.04
1016.00 1016.59 1017.16 1017.70 1018.22 1018.71 1019.16 1019.57 1019.92 1020.20 1020.42 1020.57 1020.66 1020.71 1020.73 1020.74 1020.76 1020.79 1020.84 1020.91 1020.99 1021.07 1021.13 1021.17 1021.19 1021.19 1021.18 1021.18 1021.19 1021.23 1021.30 1021.40 1021.51 1021.63 1021.73 1021.80 1021.85 1021.86 1021.84 1021.79 1021.72 1021.63 1021.51
1015.62 1016.21 1016.79 1017.35 1017.90 1018.43 1018.92 1019.36 1019.74 1020.04 1020.26 1020.41 1020.48 1020.52 1020.54 1020.56 1020.60 1020.66 1020.76 1020.88 1021.00 1021.11 1021.20 1021.25 1021.27 1021.26 1021.24 1021.23 1021.24 1021.28 1021.35 1021.46 1021.58 1021.72 1021.84 1021.94 1022.01 1022.05 1022.06 1022.05 1022.01 1021.94 1021.84
1015.31 1015.89 1016.46 1017.02 1017.58 1018.13 1018.64 1019.09 1019.48 1019.79 1020.00 1020.13 1020.20 1020.23 1020.26 1020.29 1020.36 1020.46 1020.60 1020.76 1020.92 1021.07 1021.18 1021.24 1021.27 1021.26 1021.24 1021.23 1021.24 1021.29 1021.37 1021.49 1021.62 1021.76 1021.90 1022.01 1022.09 1022.15 1022.17 1022.18 1022.16 1022.11 1022.04
1015.09 1015.63 1016.18 1016.72 1017.27 1017.80 1018.31 1018.77 1019.16 1019.46 1019.67 1019.79 1019.86 1019.90 1019.93 1019.98 1020.07 1020.21 1020.39 1020.59 1020.79 1020.96 1021.09 1021.18 1021.21 1021.22 1021.21 1021.21 1021.23 1021.29 1021.38 1021.51 1021.65 1021.79 1021.92 1022.03 1022.11 1022.17 1022.19 1022.20 1022.19 1022.15 1022.09
1014.95 1015.45 1015.94 1016.44 1016.95 1017.46 1017.95 1018.40 1018.79 1019.09 1019.30 1019.43 1019.50 1019.55 1019.59 1019.67 1019.79 1019.96 1020.16 1020.39 1020.61 1020.81 1020.96 1021.07 1021.12 1021.15 1021.16 1021.18 1021.22 1021.29 1021.40 1021.53 1021.67 1021.81 1021.93 1022.02 1022.09 1022.13 1022.15 1022.14 1022.13 1022.09 1022.04
Thickness
5730 5733 5733 5734 5734 5734 5734 5734 5734 5734 5733 5733 5732 5732 5732 5731 5731 5731 5731 5730 5730 5730 5729 5729 5728 5728 5727 5727 5727 5726 5726 5726 5725 5724 5724 5723 5723 5722 5722 5721 5721 5720 5720
5731 5731 5731 5731 5731 5731 5731 5731 5731 5731 5730 5730 5729 5729 5729 5728 5728 5728 5727 5727 5726 5726 5726 5726 5725 5725 5724 5724 5723 5723 5722 5722 5721 5721 5720 5720 5720 5719 5719 5718 5718 5718 5717
5728 5727 5727 5727 5728 5728 5728 5728 5728 5728 5727 5727 5726 5726 5725 5725 5725 5724 5724 5724 5723 5723 5722 5722 5722 5722 5721 5720 5720 5720 5719 5719 5718 5717 5717 5717 5717 5716 5716 5716 5715 5715 5714
5722 5722 5722 5722 5723 5724 5724 5724 5724 5724 5724 5723 5723 5722 5722 5722 5721 5721 5720 5720 5720 5719 5719 5719 5718 5718 5717 5717 5716 5716 5716 5715 5715 5714 5714 5714 5714 5713 5713 5713 5712 5712 5711
5716 5716 5717 5717 5718 5718 5719 5719 5719 5719 5719 5719 5719 5719 5718 5718 5718 5717 5717 5716 5716 5716 5715 5715 5715 5714 5714 5713 5713 5712 5712 5712 5711 5711 5711 5711 5711 5711 5711 5710 5709 5709 5708
5708 5709 5711 5712 5712 5713 5714 5714 5715 5715 5715 5715 5715 5715 5714 5714 5714 5713 5713 5713 5712 5712 5712 5712 5711 5711 5710 5710 5709 5709 5708 5708 5708 5708 5707 5707 5708 5708 5707 5707 5706 5706 5705
5700 5702 5704 5705 5707 5707 5708 5709 5709 5710 5710 5711 5711 5711 5710 5710 5710 5709 5709 5709 5709 5709 5708 5708 5708 5707 5707 5706 5706 5705 5705 5704 5704 5704 5704 5704 5704 5704 5704 5703 5702 5702 5701
5693 5695 5696 5698 5700 5701 5702 5703 5704 5705 5705 5706 5706 5706 5706 5706 5706 5705 5705 5705 5705 5705 5704 5704 5704 5703 5703 5702 5702 5702 5701 5701 5700 5700 5700 5700 5700 5700 5700 5699 5698 5698 5697
5685 5687 5689 5691 5693 5695 5696 5698 5699 5699 5700 5700 5701 5701 5701 5701 5701 5701 5700 5700 5700 5700 5700 5700 5700 5699 5699 5699 5698 5698 5697 5696 5696 5696 5696 5696 5696 5696 5696 5695 5694 5694 5693
5676 5679 5681 5683 5686 5688 5690 5692 5693 5693 5694 5694 5695 5695 5695 5695 5696 5696 5696 5695 5695 5695 5695 5695 5695 5695 5695 5694 5694 5693 5693 5692 5692 5691 5691 5691 5691 5691 5691 5690 5690 5689 5688
5666 5670 5673 5676 5679 5681 5684 5686 5687 5687 5688 5688 5689 5689 5689 5690 5690 5690 5690 5690 5690 5690 5691 5691 5691 5691 5690 5690 5689 5689 5688 5687 5687 5687 5686 5687 5686 5686 5686 5685 5684 5684 5683
5657 5661 5665 5668 5671 5673 5676 5678 5680 5680 5681 5682 5682 5683 5683 5684 5684 5684 5684 5685 5685 5685 5685 5685 5685 5685 5685 5685 5684 5684 5683 5682 5682 5681 5681 5681 5681 5681 5680 5679 5679 5678 5677
5650 5654 5658 5660 5663 5666 5668 5671 5673 5673 5674 5675 5675 5676 5677 5677 5677 5678 5678 5678 5679 5679 5680 5680 5680 5680 5679 5679 5679 5678 5677 5677 5676 5676 5675 5675 5675 5675 5674 5673 5673 5672 5671
5643 5646 5650 5654 5657 5659 5661 5662 5665 5666 5667 5668 5668 5669 5669 5670 5670 5671 5671 5671 5672 5673 5673 5674 5673 5673 5673 5673 5673 5672 5672 5671 5670 5670 5669 5669 5668 5668 5668 5667 5666 5665 5665
5636 5639 5642 5646 5650 5652 5654 5653 5656 5658 5659 5660 5660 5661 5662 5663 5663 5664 5664 5665 5666 5666 5667 5667 5667 5667 5666 5666 5666 5666 5665 5664 5664 5663 5662 5662 5662 5661 5661 5660 5660 5659 5658
5630 5632 5635 5638 5642 5644 5646 5647 5648 5650 5651 5652 5653 5654 5655 5656 5656 5657 5657 5658 5658 5659 5660 5660 5660 5659 5659 5659 5658 5658 5658 5657 5657 5656 5655 5655 5654 5654 5654 5653 5652 5652 5651
5623 5626 5628 5630 5633 5636 5638 5638 5640 5641 5642 5643 5644 5646 5647 5648 5648 5649 5650 5650 5650 5651 5652 5652 5652 5652 5651 5651 5650 5650 5650 5649 5649 5648 5648 5647 5646 5646 5645 5644 5644 5643 5643
5617 5619 5621 5623 5625 5628 5631 5631 5631 5632 5632 5633 5635 5636 5638 5639 5640 5640 5641 5641 5642 5643 5644 5644 5643 5642 5642 5641 5641 5641 5641 5641 5640 5640 5639 5638 5637 5636 5635 5635 5634 5633 5633
5610 5612 5613 5614 5617 5620 5622 5622 5621 5622 5623 5624 5625 5627 5628 5629 5630 5631 5632 5633 5634 5634 5635 5635 5634 5633 5632 5632 5632 5632 5632 5631 5631 5631 5630 5629 5628 5626 5625 5625 5624 5623 5623
5603 5604 5606 5607 5609 5611 5612 5612 5611 5612 5613 5614 5615 5616 5618 5619 5620 5621 5622 5623 5625 5625 5625 5625 5624 5623 5622 5622 5623 5622 5622 5622 5621 5621 5620 5619 5617 5616 5615 5614 5613 5612 5612
5594 5596 5598 5599 5601 5602 5603 5602 5601 5601 5602 5603 5605 5606 5608 5609 5611 5612 5612 5613 5614 5614 5614 5615 5614 5612 5612 5612 5611 5610 5611 5611 5611 5610 5609 5608 5607 5606 5605 5604 5603 5602 5600
5588 5589 5591 5592 5593 5595 5595 5594 5593 5592 5592 5594 5595 5597 5599 5600 5601 5602 5603 5603 5604 5604 5604 5605 5604 5602 5601 5600 5599 5598 5597 5599 5600 5600 5599 5598 5596 5596 5595 5594 5592 5591 5590
5581 5581 5584 5584 5586 5586 5586 5586 5585 5584 5584 5584 5585 5587 5589 5590 5591 5592 5593 5593 5593 5594 5594 5594 5594 5593 5591 5590 5588 5588 5586 5586 5586 5588 5588 5587 5585 5584 5584 5583 5582 5581 5580
5575 5575 5576 5577 5578 5578 5579 5578 5578 5577 5576 5576 5577 5578 5580 5581 5582 5583 5583 5583 5584 5584 5584 5584 5584 5583 5583 5581 5579 5577 5577 5577 5575 5576 5577 5576 5575 5574 5573 5573 5571 5570 5569
5568 5568 5569 5570 5570 5571 5572 5571 5570 5569 5569 5569 5569 5570 5571 5572 5573 5573 5573 5574 5574 5574 5574 5573 5573 5573 5572 5571 5570 5567 5566 5565 5564 5564 5565 5564 5563 5563 5563 5563 5561 5560 5559
5561 5561 5562 5562 5563 5563 5563 5564 5563 5561 5561 5561 5560 5560 5561 5563 5564 5564 5564 5564 5564 5564 5564 5563 5562 5562 5561 5561 5559 5558 5556 5555 5554 5552 5552 5552 5552 5553 5553 5553 5551 5549 5548